Вернуться в каталог

DELTA 1 DEB

АктивенUNKNOWN
NORAD 2888·DEBRIS·🇺🇸 United States

Запущен Nov 6, 1965 с Cape Canaveral Space Force Station

Loading…

Ближайшие Пролёты (ближайшие 24 часа)

TLE

СвежийSource: Space-Track

Эпоха: Sep 8, 2026, 19:15 UTC

1 02888U 65089D   26251.80266176 -.00000120  00000-0 -34237-3 0  9993
2 02888  59.2035 167.6692 0715443 311.3550  74.7381 11.87432665584427

Отслеживайте DELTA 1 DEB в реальном времени с AllMySat

Download on the App Store